Flag for Kazakhstan Weather past 2 weeks in Karaganda, Kazakhstan

Now
0 °F

Passing clouds.


Feels Like: -23 °F
Forecast: 2 / 11 °F
Wind: 22 mph from Northeast

Location: Karaganda

Current Time: Mar 29, 2015 at 6:00:57 AM

Latest Report: Mar 29, 2015 at 5:30 AM


Visibility: 3 mi

Pressure: 30.18 "Hg

Humidity: 78%

Dew point: -6 °F

Location of KaragandaLocation

Historic Weather in Karaganda — Graph

°F

Karaganda temperature yesterday

Maximum temperature yesterday: 27 °F (at 12:00 AM)
Minimum temperature yesterday: 5 °F (at 11:30 PM)
Average temperature yesterday: 16 °F

Past Weeks' High & Low Weather Summary

 TemperatureHumidityPressure
High39 °F (Mar 24, 12:30 PM)100% (Mar 23, 4:00 AM)30.54 "Hg (Mar 23, 4:00 AM)
Low-2 °F (Mar 15, 8:30 AM)59% (Mar 21, 7:30 PM)29.36 "Hg (Mar 24, 10:30 AM)
Average22 °F85%30.15 "Hg
* Reported Mar 14 5:00 AM — Mar 29 5:00 AM, Karaganda, Weather by CustomWeather, © 2015

Note: Actual official high and low records may vary slightly from our data, if they occured in-between our weather recording intervals... More about our weather records

Advertising

Karaganda weather history for previous 24 hours

 ConditionsComfort  
Time TempWeatherWind HumidityBarometerVisibility
5:00 AM
Sun, Mar 29
0 °FPassing clouds.22 mph84%30.18 "Hg2 mi
4:30 AM0 °FPassing clouds.22 mph84%30.18 "Hg3 mi
4:00 AM0 °FPassing clouds.20 mph84%30.15 "Hg4 mi
3:30 AM1 °FPassing clouds.20 mph78%30.15 "Hg4 mi
3:00 AM1 °FPassing clouds.17 mph85%30.15 "Hg2 mi
2:30 AM1 °FPassing clouds.22 mph85%30.15 "Hg2 mi
2:00 AM1 °FPassing clouds.22 mph85%30.18 "Hg2 mi
1:30 AM3 °FPassing clouds.22 mph78%30.18 "Hg2 mi
1:00 AM3 °FPassing clouds.22 mph85%30.18 "Hg2 mi
12:30 AM5 °FPassing clouds.24 mph85%30.18 "Hg2 mi
12:00 AM5 °FPassing clouds.24 mph85%30.18 "Hg2 mi
11:30 PM
Sat, Mar 28
5 °FPassing clouds.22 mph85%30.18 "Hg2 mi
11:00 PM7 °FSnow. Partly cloudy.20 mph85%30.18 "Hg2 mi
10:30 PM7 °FSnow flurries. Passing clouds.24 mph85%30.18 "Hg2 mi
10:00 PM9 °FSnow flurries. Passing clouds.24 mph85%30.18 "Hg2 mi
9:30 PM9 °FSnow flurries. Passing clouds.22 mph85%30.18 "Hg2 mi
9:00 PM9 °FLight snow. Mostly cloudy.22 mph85%30.18 "Hg2 mi
8:30 PM10 °FLight snow. Mostly cloudy.22 mph85%30.15 "Hg3 mi
8:00 PM10 °FMostly cloudy.20 mph92%30.15 "Hg2 mi
7:30 PM12 °FMostly cloudy.22 mph85%30.15 "Hg2 mi
7:00 PM12 °FBroken clouds.24 mph85%30.15 "Hg2 mi
6:30 PM12 °FBroken clouds.26 mph85%30.12 "Hg1 mi
6:00 PM12 °FSnow. More clouds than sun.24 mph92%30.12 "Hg1 mi
5:30 PM14 °FMostly cloudy.26 mph79%30.12 "Hg2 mi
5:00 PM14 °FMostly cloudy.22 mph85%30.12 "Hg1 mi
4:30 PM14 °FMostly cloudy.26 mph85%30.12 "Hg2 mi
4:00 PM14 °FMostly cloudy.26 mph85%30.09 "Hg1 mi
3:30 PM14 °FMostly cloudy.24 mph85%30.09 "Hg1 mi
3:00 PM14 °FSnow. Mostly cloudy.26 mph85%30.09 "Hg1 mi
2:30 PM16 °FSnow. Mostly cloudy.26 mph86%30.09 "Hg1 mi
2:00 PM16 °FSnow. Mostly cloudy.24 mph86%30.09 "Hg1 mi
1:30 PM16 °FSnow. Mostly cloudy.24 mph86%30.09 "Hg1 mi
1:00 PM16 °FSnow. Mostly cloudy.26 mph86%30.07 "Hg1 mi
12:30 PM16 °FSnow. Mostly cloudy.26 mph86%30.07 "Hg1 mi
12:00 PM16 °FSnow. Mostly cloudy.24 mph86%30.07 "Hg1 mi
11:30 AM14 °FSnow. Mostly cloudy.26 mph92%30.07 "Hg1 mi
11:00 AM14 °FSnow. Mostly cloudy.26 mph92%30.07 "Hg1 mi
10:30 AM14 °FSnow. Overcast.26 mph92%30.07 "Hg1 mi
10:00 AM14 °FSnow. Overcast.29 mph92%30.04 "Hg1 mi
9:30 AM14 °FSnow. Overcast.26 mph92%30.04 "Hg1 mi
9:00 AM16 °FSnow. Overcast.22 mph86%30.04 "Hg1 mi
8:30 AM16 °FSnow. Overcast.22 mph93%30.04 "Hg1 mi
8:00 AM18 °FSnow. Overcast.24 mph86%30.04 "Hg1 mi
7:30 AM18 °FSnow. Overcast.22 mph93%30.04 "Hg1 mi
7:00 AM19 °FSnow. Overcast.15 mph93%30.04 "Hg2 mi
6:30 AM19 °FSnow. Mostly cloudy.15 mph93%30.01 "Hg2 mi
6:00 AM19 °FSnow. Mostly cloudy.13 mph93%30.01 "Hg1 mi
Weather by CustomWeather, © 2015

See weather overviewHow to use our weather pages